Georgetown, DE

9:25 PM EST on December 03, 2016 (GMT -0500)
Sussex County

Weather History for KGED - January, 2013

Change the Weather History Date:

Wednesday, January 30, 2013

  Actual Average Record
Temperature  
Mean Temperature 63 °F 35 °F  
Max Temperature 75 °F 44 °F 77 °F (2002)
Min Temperature 50 °F 27 °F -5 °F (2014)
Degree Days  
Heating Degree Days 2 30  
Month to date heating degree days 789 897  
Since 1 July heating degree days 2203 2479  
Cooling Degree Days 0 0  
Month to date cooling degree days 0 0  
Year to date cooling degree days 0 0  
Growing Degree Days 12 (Base 50)    
Moisture  
Dew Point 55 °F    
Average Humidity 75    
Maximum Humidity 93    
Minimum Humidity 57    
Precipitation  
Precipitation 0.00 in 0.09 in 1.40 in (1966)
Month to date precipitation 2.30 2.83  
Year to date precipitation 2.30 2.83  
Sea Level Pressure  
Sea Level Pressure 29.78 in    
Wind  
Wind Speed 16 mph (SSW)    
Max Wind Speed 36 mph    
Max Gust Speed 49 mph    
Visibility 9 miles    
Events      
T = Trace of Precipitation, MM = Missing Value Source: NWS Daily Summary

Daily Weather History Graph

Daily Weather History Graph

Search for Another Location

Airport or City:

Trip Planner

Search our weather history database for the weather conditions in past years. The results will help you decide how hot, cold, wet, or windy it might be!

Date:

Astronomy

Jan. 30, 2013 Rise Set
Actual Time 7:08 AM EST 5:21 PM EST
Civil Twilight 6:40 AM EST 5:49 PM EST
Nautical Twilight 6:08 AM EST 6:21 PM EST
Astronomical Twilight 5:37 AM EST 6:52 PM EST
Moon 9:14 PM EST (1/30) 8:38 AM EST (1/30)
Length of Visible Light 11h 08m
Length of Day
10h 12m
Waning Gibbous, 88% of the Moon is Illuminated
Jan 30
Waning Gibbous
Feb 3
Last Quarter
Feb 10
New
Feb 17
First Quarter
Feb 25
Full

Hourly Weather History & Observations

Time (EST) Temp. Dew Point Humidity Pressure Visibility Wind Dir Wind Speed Gust Speed Precip Events Conditions
12:54 AM 51.1 °F 46.9 °F 86% 30.02 in 7.0 mi South 8.1 mph - N/A   Clear
1:54 AM 52.0 °F 46.9 °F 83% 30.01 in 7.0 mi South 5.8 mph - N/A   Clear
2:54 AM 51.1 °F 46.9 °F 86% 29.99 in 6.0 mi South 5.8 mph - N/A   Clear
3:54 AM 51.1 °F 48.0 °F 89% 29.96 in 6.0 mi South 8.1 mph - N/A   Clear
4:54 AM 53.1 °F 48.9 °F 86% 29.95 in 6.0 mi South 6.9 mph - N/A   Partly Cloudy
5:54 AM 54.0 °F 51.1 °F 90% 29.94 in 6.0 mi South 6.9 mph - N/A   Clear
6:54 AM 55.0 °F 51.1 °F 86% 29.92 in 6.0 mi South 9.2 mph - N/A   Clear
7:54 AM 57.0 °F 53.1 °F 87% 29.91 in 6.0 mi South 8.1 mph - N/A   Mostly Cloudy
8:54 AM 60.1 °F 55.9 °F 86% 29.91 in 8.0 mi South 9.2 mph - N/A   Mostly Cloudy
9:02 AM 60.8 °F 55.4 °F 82% 29.91 in 8.0 mi South 9.2 mph - N/A   Mostly Cloudy
9:54 AM 66.0 °F 59.0 °F 78% 29.87 in 10.0 mi SSW 18.4 mph 33.4 mph N/A   Mostly Cloudy
10:45 AM 68.0 °F 59.0 °F 73% 29.85 in 10.0 mi SSW 21.9 mph 32.2 mph N/A   Scattered Clouds
10:54 AM 68.0 °F 59.0 °F 73% 29.86 in 10.0 mi SW 24.2 mph 33.4 mph N/A   Scattered Clouds
11:09 AM 68.0 °F 59.0 °F 73% 29.86 in 10.0 mi SW 27.6 mph 39.1 mph N/A   Mostly Cloudy
11:54 AM 69.1 °F 59.0 °F 70% 29.81 in 10.0 mi SSW 21.9 mph 28.8 mph N/A   Overcast
12:20 PM 69.8 °F 57.2 °F 64% 29.79 in 10.0 mi SSW 24.2 mph 41.4 mph N/A   Scattered Clouds
12:54 PM 71.1 °F 57.9 °F 63% 29.75 in 10.0 mi SSW 25.3 mph 41.4 mph N/A   Clear
1:54 PM 73.9 °F 57.9 °F 57% 29.71 in 10.0 mi SSW 28.8 mph 43.7 mph N/A   Clear
2:54 PM 73.9 °F 57.0 °F 55% 29.70 in 10.0 mi SSW 21.9 mph 35.7 mph N/A   Clear
3:54 PM 72.0 °F 57.9 °F 61% 29.70 in 10.0 mi SSW 17.3 mph 29.9 mph N/A   Overcast
4:54 PM 69.1 °F 57.0 °F 65% 29.67 in 10.0 mi South 18.4 mph 28.8 mph N/A   Mostly Cloudy
5:54 PM 66.0 °F 57.0 °F 73% 29.67 in 10.0 mi South 16.1 mph 25.3 mph N/A   Mostly Cloudy
6:54 PM 64.0 °F 57.0 °F 78% 29.64 in 10.0 mi South 18.4 mph 25.3 mph N/A   Clear
7:54 PM 64.0 °F 57.0 °F 78% 29.60 in 10.0 mi South 16.1 mph 26.5 mph N/A   Clear
8:54 PM 63.0 °F 57.0 °F 81% 29.56 in 10.0 mi South 18.4 mph 28.8 mph N/A   Mostly Cloudy
9:54 PM 64.0 °F 57.0 °F 78% 29.52 in 10.0 mi South 19.6 mph 28.8 mph N/A   Mostly Cloudy
10:14 PM 64.4 °F 57.2 °F 77% 29.51 in 10.0 mi South 28.8 mph 40.3 mph N/A   Overcast
10:54 PM 64.9 °F 57.9 °F 78% 29.47 in 10.0 mi South 26.5 mph 40.3 mph N/A   Overcast
11:54 PM 66.0 °F 57.9 °F 75% 29.43 in 10.0 mi South 31.1 mph 43.7 mph N/A   Overcast